FENGYUN 1C DEB

Satellite information

Favourite Embed

Satellite Type and Status

DEBRISIN ORBIT

Key statistics

Satellite FENGYUN 1C DEB at a glance.

Uptime

9495

Days in orbit

Revolutions

≈ 14.2

Per day

Orbit

SSO

Sun Synchronous Orbit

Inclination

98.6

Latest

Satellite identification and parameters

Extended collection of information and parameters for FENGYUN 1C DEB.

Object identification

Identified? True

Debris? True

Object name: FENGYUN 1C DEB

International designator: 1999-025DKM

Object number (NORAD): 35109

Object ID (CCSDS): 35109

Country: PEOPLES REPUBLIC OF CHINA (PRC)

Current information (Y/N): Y

RCS size: SMALL

Orbital parameters

Period: 101.368 minutes

Inclination: 98.6009 deg

SMA: 7201.583 km

Apoapsis: 933.264 km

Periapsis: 713.632 km

RAAN: 119.6912 deg

Eccentricy: 0.0152489

Argument of periapsis: 317.0205 deg

Mean anomaly: 41.9141 deg

Mean motion: 14.20563935 rev/day

Mean motion (dot): 0.0000098 rev/day2

B* drag term: 0.00042382 1/REarth

Two-line elements (TLE)

Creation date: May 5, 2025, 2:11 a.m.

Reference frame: TEME

Reference center: EARTH

Epoch: May 4, 2025, 5:17 p.m. UTC

TLE line 0: 0 FENGYUN 1C DEB

TLE line 1: 1 35109U 99025DKM 25124.72055990 .00000980 00000-0 42382-3 0 9993

TLE line 2: 2 35109 98.6009 119.6912 0152489 317.0205 41.9141 14.20563935610070

Live tracking on map

Real-time ground track for satellite FENGYUN 1C DEB.

In-orbit conjunctions

A list of the most updated potential collisions computed for object FENGYUN 1C DEB.

Target Orbit TCA Probability of collision Miss distance Type
CZ-2C R/B LEO 2025-01-31 10:12:23 0.0001810627 220.0 (m) ROCKET BODY
CZ-6A DEB LEO 2024-10-29 16:46:19 0.0005917591 750.0 (m) DEBRIS

Associated space launch

Chinese polar orbiting meteorological satellite

FENGYUN 1C DEB was lifted into orbit during the mission ‘Long March 4B | Feng Yun 1C’, on board a Long March 4B space rocket.

The launch took place on May 10, 1999, 1:33 a.m. from Launch Complex 7.

For more information about the launch, click the button.

Launch to space Long March 4B | Feng Yun 1C
Long March 4B | Feng Yun 1C

Agency: N/A

Status: Launch Successful

Launch date: May 10, 1999, 1:33 a.m. UTC

Rocket: Long March 4B

Launch pad: Launch Complex 7

Location: Taiyuan Satellite Launch Center, People's Republic of China

...

Latest news about this satellite

There are no fresh news available about this satellite. Check back as we update our databases every day.


Newsletter sign-up

Weekly statistics, charts and insights to help you stay on top of the space industry.